Simultaneous Nadir Overpasses (SNOs) Predictions

Prediction of SNOs between METOP-A and NOAA-19 Satellite Orbit:

Table of predicted SNOs for the next 14.0 days since TLE Epoch: 7/28/2017
Index Date (METOP-A) Time (METOP-A) Lat,Lon (METOP-A) SZA (METOP-A ) Date (NOAA-19) Time (NOAA-19) Lat,Lon (NOAA-19) SZA (NOAA-19 ) Distance(km) Time Diff (sec)
1 08/01/2017 14:16:46 -77.90, 152.95 119.97 08/01/2017 14:15:42 -77.90, 148.79 120.03 97.01 64
2 08/01/2017 15:07:36 77.47, -41.75 59.58 08/01/2017 15:06:37 77.46, -41.69 59.56 2.23 59
3 08/01/2017 15:58:18 -77.47, 125.54 120.43 08/01/2017 15:57:33 -77.49, 125.45 120.41 3.08 45
4 08/01/2017 16:48:58 77.45, -67.18 59.57 08/01/2017 16:48:38 77.44, -67.08 59.56 2.92 20
5 08/01/2017 17:39:40 -77.45, 100.11 120.43 08/01/2017 17:39:34 -77.46, 100.06 120.41 2.43 6
6 08/01/2017 18:30:20 77.43, -92.61 59.57 08/01/2017 18:30:40 77.46, -92.68 59.59 3.08 20
7 08/01/2017 19:21:02 -77.43, 74.68 120.43 08/01/2017 19:21:35 -77.44, 74.66 120.42 1.89 33
8 08/01/2017 20:11:42 77.41,-118.03 59.57 08/01/2017 20:12:41 77.44,-118.08 59.59 2.55 59
9 08/01/2017 21:02:24 -77.41, 49.26 120.44 08/01/2017 21:03:36 -77.42, 49.26 120.42 1.55 72




NCC Satellite Simultaneous Nadir Overpasses (SNOs) Prediction Service
